• In Belgium
  • List of Countries
  • For 7 days
  • Water Temperature
  • Satellite Maps
  • Weather Map
  • Weather Widgets
  • user-avatar
    Login

    Hourly Weather Beveren

    Today, 22 February, Thursday

    Time Temperature Precipitation Wind Pressure Humidity
    00:00 -3°C° 0 mm 4 mps 767 mmHg 76%
    01:00 -3°C° 0 mm 4 mps 767 mmHg 77%
    02:00 -3°C° 0 mm 4 mps 767 mmHg 77%
    03:00 -3°C° 0 mm 4 mps 767 mmHg 78%
    04:00 -3°C° 0 mm 4 mps 767 mmHg 77%
    05:00 -4°C° 0 mm 5 mps 767 mmHg 76%
    06:00 -4°C° 0 mm 5 mps 766 mmHg 75%
    07:00 -2°C° 0 mm 5 mps 767 mmHg 69%
    08:00 -2°C° 0 mm 5 mps 767 mmHg 64%
    09:00 -2°C° 0 mm 6 mps 767 mmHg 58%
    10:00 -1°C° 0 mm 6 mps 767 mmHg 53%
    11:00 +1°C° 0 mm 6 mps 767 mmHg 49%
    12:00 +3°C° 0 mm 6 mps 766 mmHg 44%
    13:00 +3°C° 0 mm 6 mps 766 mmHg 44%
    14:00 +3°C° 0 mm 6 mps 766 mmHg 45%
    15:00 +3°C° 0 mm 6 mps 765 mmHg 46%
    16:00 +2°C° 0 mm 6 mps 766 mmHg 50%
    17:00 0°C° 0 mm 5 mps 766 mmHg 55%
    18:00 -1°C° 0 mm 5 mps 766 mmHg 60%
    19:00 -1°C° 0 mm 5 mps 766 mmHg 62%
    20:00 -1°C° 0 mm 5 mps 766 mmHg 64%
    21:00 -2°C° 0 mm 5 mps 766 mmHg 66%
    22:00 -2°C° 0 mm 5 mps 766 mmHg 66%
    23:00 -4°C° 0 mm 5 mps 766 mmHg 67%

    Tomorrow, 23 February, Friday

    Time Temperature Precipitation Wind Pressure Humidity
    00:00 -4°C° 0 mm 5 mps 766 mmHg 68%
    01:00 -4°C° 0 mm 5 mps 766 mmHg 68%
    02:00 -4°C° 0 mm 5 mps 766 mmHg 68%
    03:00 -4°C° 0 mm 5 mps 766 mmHg 67%
    04:00 -4°C° 0 mm 5 mps 766 mmHg 66%
    05:00 -4°C° 0 mm 5 mps 766 mmHg 65%
    06:00 -4°C° 0 mm 5 mps 766 mmHg 64%
    07:00 -4°C° 0 mm 6 mps 766 mmHg 59%
    08:00 -3°C° 0 mm 6 mps 766 mmHg 54%
    09:00 -2°C° 0 mm 7 mps 766 mmHg 48%
    10:00 -1°C° 0 mm 7 mps 765 mmHg 45%
    11:00 0°C° 0 mm 7 mps 765 mmHg 42%
    12:00 +2°C° 0 mm 7 mps 765 mmHg 39%
    13:00 +2°C° 0 mm 7 mps 764 mmHg 38%
    14:00 +2°C° 0 mm 7 mps 764 mmHg 37%
    15:00 +2°C° 0 mm 7 mps 764 mmHg 37%
    16:00 0°C° 0 mm 7 mps 764 mmHg 39%
    17:00 -2°C° 0 mm 6 mps 764 mmHg 41%
    18:00 -3°C° 0 mm 6 mps 764 mmHg 43%
    19:00 -3°C° 0 mm 6 mps 764 mmHg 43%
    20:00 -3°C° 0 mm 6 mps 764 mmHg 42%
    21:00 -4°C° 0 mm 6 mps 765 mmHg 41%
    22:00 -4°C° 0 mm 6 mps 765 mmHg 41%
    23:00 -4°C° 0 mm 6 mps 764 mmHg 41%

    Day after tomorrow, 24 February, Saturday

    Time Temperature Precipitation Wind Pressure Humidity
    00:00 -5°C° 0 mm 6 mps 764 mmHg 40%
    01:00 -5°C° 0 mm 6 mps 764 mmHg 41%
    02:00 -5°C° 0 mm 6 mps 764 mmHg 41%
    03:00 -5°C° 0 mm 6 mps 764 mmHg 41%
    04:00 -5°C° 0 mm 6 mps 764 mmHg 40%
    05:00 -6°C° 0 mm 7 mps 764 mmHg 39%
    06:00 -6°C° 0 mm 7 mps 764 mmHg 39%
    07:00 -4°C° 0 mm 7 mps 765 mmHg 36%
    08:00 -4°C° 0 mm 8 mps 765 mmHg 33%
    09:00 -4°C° 0 mm 8 mps 765 mmHg 29%
    10:00 -1°C° 0 mm 8 mps 765 mmHg 28%
    11:00 0°C° 0 mm 8 mps 765 mmHg 27%
    12:00 +1°C° 0 mm 8 mps 765 mmHg 25%
    13:00 +1°C° 0 mm 8 mps 764 mmHg 27%
    14:00 +2°C° 0 mm 8 mps 764 mmHg 30%
    15:00 +2°C° 0 mm 8 mps 764 mmHg 32%
    16:00 +1°C° 0 mm 8 mps 764 mmHg 37%
    17:00 0°C° 0 mm 8 mps 765 mmHg 42%
    18:00 -2°C° 0 mm 8 mps 765 mmHg 48%
    19:00 -2°C° 0 mm 8 mps 766 mmHg 48%
    20:00 -4°C° 0 mm 8 mps 766 mmHg 48%
    21:00 -3°C° 0 mm 7 mps 767 mmHg 48%
    22:00 -4°C° 0 mm 7 mps 767 mmHg 47%
    23:00 -4°C° 0 mm 7 mps 767 mmHg 46%

    25 February, Sunday

    Time Temperature Precipitation Wind Pressure Humidity
    00:00 -4°C° 0 mm 7 mps 767 mmHg 45%
    01:00 -6°C° 0 mm 7 mps 767 mmHg 44%
    02:00 -6°C° 0 mm 7 mps 767 mmHg 44%
    03:00 -6°C° 0 mm 7 mps 767 mmHg 44%
    04:00 -6°C° 0 mm 7 mps 767 mmHg 44%
    05:00 -6°C° 0 mm 7 mps 768 mmHg 44%
    06:00 -7°C° 0 mm 7 mps 768 mmHg 45%
    07:00 -6°C° 0 mm 7 mps 768 mmHg 42%
    08:00 -6°C° 0 mm 8 mps 768 mmHg 39%
    09:00 -5°C° 0 mm 8 mps 768 mmHg 36%
    10:00 -4°C° 0 mm 8 mps 768 mmHg 32%
    11:00 -4°C° 0 mm 8 mps 768 mmHg 28%
    12:00 -2°C° 0 mm 8 mps 768 mmHg 25%
    13:00 -2°C° 0 mm 8 mps 768 mmHg 24%
    14:00 -1°C° 0 mm 8 mps 768 mmHg 23%
    15:00 -1°C° 0 mm 8 mps 768 mmHg 22%
    16:00 -2°C° 0 mm 8 mps 768 mmHg 25%
    17:00 -4°C° 0 mm 7 mps 769 mmHg 27%
    18:00 -6°C° 0 mm 7 mps 769 mmHg 30%
    19:00 -6°C° 0 mm 7 mps 769 mmHg 33%
    20:00 -6°C° 0 mm 7 mps 770 mmHg 37%
    21:00 -7°C° 0 mm 7 mps 770 mmHg 40%
    22:00 -6°C° 0 mm 6 mps 770 mmHg 42%
    23:00 -6°C° 0 mm 6 mps 770 mmHg 44%

    26 February, Monday

    Time Temperature Precipitation Wind Pressure Humidity
    00:00 -6°C° 0 mm 6 mps 770 mmHg 46%
    01:00 -6°C° 0 mm 6 mps 770 mmHg 47%
    02:00 -6°C° 0 mm 6 mps 770 mmHg 48%
    03:00 -6°C° 0 mm 6 mps 770 mmHg 49%
    04:00 -8°C° 0 mm 6 mps 770 mmHg 48%
    05:00 -8°C° 0 mm 6 mps 770 mmHg 48%
    06:00 -8°C° 0 mm 6 mps 770 mmHg 47%
    07:00 -7°C° 0 mm 7 mps 769 mmHg 46%
    08:00 -7°C° 0 mm 7 mps 769 mmHg 44%
    09:00 -7°C° 0 mm 8 mps 769 mmHg 43%
    10:00 -6°C° 0 mm 8 mps 769 mmHg 40%
    11:00 -5°C° 0 mm 8 mps 769 mmHg 37%
    12:00 -5°C° 0 mm 8 mps 768 mmHg 35%
    13:00 -5°C° 0 mm 8 mps 768 mmHg 35%
    14:00 -4°C° 0 mm 7 mps 767 mmHg 34%
    15:00 -4°C° 0 mm 7 mps 767 mmHg 34%
    16:00 -4°C° 0 mm 7 mps 767 mmHg 37%
    17:00 -5°C° 0 mm 6 mps 767 mmHg 40%
    18:00 -6°C° 0 mm 5 mps 767 mmHg 43%
    19:00 -6°C° 0 mm 5 mps 767 mmHg 44%
    20:00 -6°C° 0 mm 5 mps 767 mmHg 46%
    21:00 -7°C° 0 mm 5 mps 767 mmHg 48%
    22:00 -7°C° 0 mm 5 mps 767 mmHg 49%
    23:00 -7°C° 0 mm 5 mps 766 mmHg 49%

    27 February, Tuesday

    Time Temperature Precipitation Wind Pressure Humidity
    00:00 -7°C° 0 mm 4 mps 766 mmHg 50%
    01:00 -7°C° 0 mm 4 mps 766 mmHg 50%
    02:00 -7°C° 0 mm 4 mps 765 mmHg 51%
    03:00 -8°C° 0 mm 4 mps 765 mmHg 51%
    04:00 -8°C° 0 mm 4 mps 765 mmHg 51%
    05:00 -8°C° 0 mm 4 mps 765 mmHg 52%
    06:00 -8°C° 0 mm 4 mps 765 mmHg 52%
    07:00 -8°C° 0 mm 4 mps 765 mmHg 48%
    08:00 -7°C° 0 mm 5 mps 765 mmHg 43%
    09:00 -7°C° 0 mm 5 mps 765 mmHg 39%
    10:00 -6°C° 0 mm 5 mps 765 mmHg 34%
    11:00 -5°C° 0 mm 5 mps 764 mmHg 30%
    12:00 -4°C° 0 mm 5 mps 764 mmHg 26%
    13:00 -4°C° 0 mm 5 mps 764 mmHg 26%
    14:00 -3°C° 0 mm 4 mps 764 mmHg 25%
    15:00 -2°C° 0 mm 4 mps 763 mmHg 25%
    16:00 -3°C° 0 mm 4 mps 764 mmHg 29%
    17:00 -4°C° 0 mm 3 mps 764 mmHg 32%
    18:00 -5°C° 0 mm 3 mps 764 mmHg 35%
    19:00 -4°C° 0 mm 2 mps 764 mmHg 38%
    20:00 -4°C° 0 mm 2 mps 764 mmHg 41%
    21:00 -5°C° 0 mm 2 mps 765 mmHg 44%
    22:00 -5°C° 0 mm 2 mps 765 mmHg 46%
    23:00 -5°C° 0 mm 2 mps 765 mmHg 48%
    Show more